When you browse on this site, cookies collect data to enhance your experience and personalize the content and advertising you see.
Visit our Privacy Policy to learn more. By continuing to use the site, you agree to this use of cookies and data.
  • In Österreich
  • Länderverzeichnis
  • Für 7 Tage
  • Wassertemperatur
  • Satellitenkarten
  • Wetterkarte
  • News
  • Widgets
  • user-avatar
    Anmelden

    Stündliche Wetter Springville

    Heute, 23 April, Dienstag

    Zeit Temperatur Niederschläge Wind Luftdruck Luftfeuchtigkeit
    00:00 +10°C° 0 mm 1 m/S 639 mmHg 76%
    01:00 +10°C° 0 mm 1 m/S 639 mmHg 76%
    02:00 +9°C° 0 mm 1 m/S 639 mmHg 77%
    03:00 +9°C° 0 mm 1 m/S 639 mmHg 76%
    04:00 +9°C° 0 mm 1 m/S 639 mmHg 76%
    05:00 +8°C° 0 mm 1 m/S 639 mmHg 76%
    06:00 +10°C° 0 mm 1 m/S 639 mmHg 70%
    07:00 +12°C° 0 mm 1 m/S 640 mmHg 63%
    08:00 +13°C° 0 mm 1 m/S 641 mmHg 57%
    09:00 +15°C° 0 mm 1 m/S 641 mmHg 52%
    10:00 +16°C° 0 mm 2 m/S 641 mmHg 47%
    11:00 +18°C° 0 mm 2 m/S 641 mmHg 42%
    12:00 +19°C° 0 mm 3 m/S 641 mmHg 40%
    13:00 +19°C° 0 mm 3 m/S 641 mmHg 37%
    14:00 +20°C° 0 mm 4 m/S 641 mmHg 35%
    15:00 +20°C° 0 mm 4 m/S 640 mmHg 36%
    16:00 +19°C° 0 mm 4 m/S 640 mmHg 37%
    17:00 +19°C° 0 mm 3 m/S 639 mmHg 37%
    18:00 +17°C° 0 mm 3 m/S 639 mmHg 41%
    19:00 +15°C° 0 mm 2 m/S 638 mmHg 45%
    20:00 +13°C° 0 mm 1 m/S 638 mmHg 49%
    21:00 +13°C° 0 mm 1 m/S 638 mmHg 51%
    22:00 +12°C° 0 mm 1 m/S 638 mmHg 53%
    23:00 +12°C° 0 mm 1 m/S 639 mmHg 55%

    Morgen, 24 April, Mittwoch

    Zeit Temperatur Niederschläge Wind Luftdruck Luftfeuchtigkeit
    00:00 +11°C° 0 mm 1 m/S 638 mmHg 56%
    01:00 +11°C° 0 mm 1 m/S 638 mmHg 57%
    02:00 +10°C° 0 mm 1 m/S 638 mmHg 57%
    03:00 +10°C° 0 mm 1 m/S 638 mmHg 58%
    04:00 +10°C° 0 mm 1 m/S 638 mmHg 59%
    05:00 +10°C° 0 mm 1 m/S 638 mmHg 60%
    06:00 +11°C° 0 mm 1 m/S 638 mmHg 57%
    07:00 +13°C° 0 mm 1 m/S 639 mmHg 54%
    08:00 +14°C° 0 mm 1 m/S 640 mmHg 51%
    09:00 +16°C° 0 mm 1 m/S 640 mmHg 48%
    10:00 +17°C° 0 mm 2 m/S 641 mmHg 45%
    11:00 +19°C° 0 mm 2 m/S 641 mmHg 42%
    12:00 +19°C° 0 mm 3 m/S 641 mmHg 40%
    13:00 +20°C° 0 mm 3 m/S 641 mmHg 37%
    14:00 +21°C° 0 mm 4 m/S 641 mmHg 34%
    15:00 +21°C° 0 mm 4 m/S 640 mmHg 35%
    16:00 +20°C° 0 mm 4 m/S 640 mmHg 36%
    17:00 +20°C° 0 mm 4 m/S 639 mmHg 37%
    18:00 +18°C° 0 mm 3 m/S 639 mmHg 43%
    19:00 +16°C° 0 mm 2 m/S 639 mmHg 49%
    20:00 +14°C° 0 mm 0 m/S 639 mmHg 55%
    21:00 +14°C° 0 mm 1 m/S 639 mmHg 56%
    22:00 +14°C° 0 mm 1 m/S 639 mmHg 58%
    23:00 +13°C° 0 mm 1 m/S 639 mmHg 59%

    übermorgen, 25 April, Donnerstag

    Zeit Temperatur Niederschläge Wind Luftdruck Luftfeuchtigkeit
    00:00 +13°C° 0 mm 1 m/S 639 mmHg 61%
    01:00 +12°C° 0 mm 1 m/S 639 mmHg 62%
    02:00 +12°C° 0 mm 1 m/S 639 mmHg 64%
    03:00 +12°C° 0 mm 1 m/S 639 mmHg 65%
    04:00 +11°C° 0 mm 1 m/S 639 mmHg 66%
    05:00 +11°C° 0 mm 1 m/S 639 mmHg 67%
    06:00 +13°C° 0 mm 1 m/S 640 mmHg 63%
    07:00 +15°C° 0 mm 1 m/S 640 mmHg 58%
    08:00 +16°C° 0 mm 1 m/S 641 mmHg 53%
    09:00 +19°C° 0 mm 1 m/S 641 mmHg 48%
    10:00 +21°C° 0 mm 1 m/S 642 mmHg 43%
    11:00 +23°C° 0 mm 2 m/S 642 mmHg 38%
    12:00 +23°C° 0 mm 2 m/S 642 mmHg 36%
    13:00 +24°C° 0 mm 3 m/S 642 mmHg 33%
    14:00 +25°C° 0 mm 3 m/S 642 mmHg 31%
    15:00 +25°C° 0 mm 3 m/S 641 mmHg 31%
    16:00 +25°C° 0 mm 3 m/S 641 mmHg 31%
    17:00 +25°C° 0 mm 2 m/S 640 mmHg 31%
    18:00 +23°C° 0 mm 2 m/S 640 mmHg 35%
    19:00 +20°C° 0 mm 2 m/S 640 mmHg 39%
    20:00 +18°C° 0 mm 2 m/S 639 mmHg 43%
    21:00 +18°C° 0.8 mm 2 m/S 639 mmHg 50%
    22:00 +18°C° 0.8 mm 1 m/S 639 mmHg 57%
    23:00 +16°C° 0.8 mm 1 m/S 639 mmHg 63%

    26 April, Freitag

    Zeit Temperatur Niederschläge Wind Luftdruck Luftfeuchtigkeit
    00:00 +16°C° 0.5 mm 1 m/S 639 mmHg 65%
    01:00 +15°C° 0.5 mm 1 m/S 639 mmHg 67%
    02:00 +15°C° 0.5 mm 1 m/S 638 mmHg 69%
    03:00 +14°C° 0.3 mm 1 m/S 638 mmHg 68%
    04:00 +14°C° 0.3 mm 1 m/S 638 mmHg 67%
    05:00 +14°C° 0.3 mm 1 m/S 638 mmHg 66%
    06:00 +15°C° 0.2 mm 1 m/S 638 mmHg 62%
    07:00 +16°C° 0.2 mm 1 m/S 639 mmHg 58%
    08:00 +17°C° 0.2 mm 2 m/S 639 mmHg 53%
    09:00 +19°C° 0 mm 2 m/S 639 mmHg 48%
    10:00 +21°C° 0 mm 3 m/S 640 mmHg 43%
    11:00 +23°C° 0 mm 4 m/S 640 mmHg 38%
    12:00 +23°C° 0 mm 5 m/S 640 mmHg 36%
    13:00 +25°C° 0 mm 5 m/S 639 mmHg 34%
    14:00 +26°C° 0 mm 6 m/S 639 mmHg 32%
    15:00 +24°C° 0 mm 6 m/S 639 mmHg 34%
    16:00 +24°C° 0 mm 6 m/S 638 mmHg 36%
    17:00 +23°C° 0 mm 6 m/S 638 mmHg 38%
    18:00 +22°C° 0.2 mm 5 m/S 638 mmHg 42%
    19:00 +20°C° 0.2 mm 3 m/S 638 mmHg 46%
    20:00 +18°C° 0.2 mm 2 m/S 638 mmHg 50%
    21:00 +17°C° 0 mm 2 m/S 638 mmHg 54%
    22:00 +16°C° 0 mm 2 m/S 638 mmHg 58%
    23:00 +15°C° 0 mm 1 m/S 638 mmHg 61%

    27 April, Samstag

    Zeit Temperatur Niederschläge Wind Luftdruck Luftfeuchtigkeit
    00:00 +14°C° 0 mm 1 m/S 637 mmHg 64%
    01:00 +13°C° 0 mm 1 m/S 637 mmHg 66%
    02:00 +13°C° 0 mm 1 m/S 637 mmHg 68%
    03:00 +12°C° 0 mm 1 m/S 637 mmHg 69%
    04:00 +12°C° 0 mm 1 m/S 637 mmHg 69%
    05:00 +12°C° 0 mm 1 m/S 637 mmHg 70%
    06:00 +13°C° 0 mm 2 m/S 637 mmHg 65%
    07:00 +15°C° 0 mm 2 m/S 638 mmHg 59%
    08:00 +16°C° 0 mm 2 m/S 638 mmHg 54%
    09:00 +18°C° 0 mm 3 m/S 638 mmHg 49%
    10:00 +20°C° 0 mm 4 m/S 639 mmHg 43%
    11:00 +21°C° 0 mm 4 m/S 639 mmHg 37%
    12:00 +22°C° 0 mm 5 m/S 638 mmHg 34%
    13:00 +23°C° 0 mm 6 m/S 638 mmHg 31%
    14:00 +24°C° 0 mm 6 m/S 638 mmHg 27%
    15:00 +23°C° 0 mm 6 m/S 637 mmHg 29%
    16:00 +23°C° 0 mm 6 m/S 637 mmHg 31%
    17:00 +23°C° 0 mm 5 m/S 636 mmHg 33%
    18:00 +21°C° 0 mm 4 m/S 635 mmHg 36%
    19:00 +19°C° 0 mm 3 m/S 635 mmHg 39%
    20:00 +18°C° 0 mm 1 m/S 634 mmHg 41%
    21:00 +16°C° 0 mm 2 m/S 634 mmHg 43%
    22:00 +16°C° 0 mm 2 m/S 634 mmHg 45%
    23:00 +14°C° 0 mm 3 m/S 634 mmHg 47%

    28 April, Sonntag

    Zeit Temperatur Niederschläge Wind Luftdruck Luftfeuchtigkeit
    00:00 +14°C° 0 mm 3 m/S 634 mmHg 50%
    01:00 +14°C° 0 mm 2 m/S 633 mmHg 52%
    02:00 +13°C° 0 mm 2 m/S 633 mmHg 54%
    03:00 +13°C° 0 mm 2 m/S 633 mmHg 54%
    04:00 +12°C° 0 mm 2 m/S 633 mmHg 53%
    05:00 +12°C° 0 mm 2 m/S 633 mmHg 53%
    06:00 +14°C° 0 mm 2 m/S 633 mmHg 49%
    07:00 +15°C° 0 mm 2 m/S 634 mmHg 45%
    08:00 +17°C° 0 mm 2 m/S 635 mmHg 41%
    09:00 +18°C° 0 mm 3 m/S 635 mmHg 38%
    10:00 +19°C° 0 mm 4 m/S 636 mmHg 36%
    11:00 +20°C° 0 mm 5 m/S 636 mmHg 33%
    12:00 +21°C° 0 mm 5 m/S 636 mmHg 33%
    13:00 +21°C° 0 mm 6 m/S 636 mmHg 32%
    14:00 +21°C° 0 mm 6 m/S 636 mmHg 31%
    15:00 +20°C° 0 mm 5 m/S 635 mmHg 33%
    16:00 +20°C° 0 mm 5 m/S 635 mmHg 35%
    17:00 +19°C° 0 mm 4 m/S 634 mmHg 36%
    18:00 +17°C° 0 mm 3 m/S 634 mmHg 40%
    19:00 +16°C° 0 mm 2 m/S 634 mmHg 44%
    20:00 +14°C° 0 mm 1 m/S 633 mmHg 48%
    21:00 +13°C° 0 mm 1 m/S 633 mmHg 50%
    22:00 +13°C° 0 mm 1 m/S 633 mmHg 52%
    23:00 +12°C° 0 mm 1 m/S 633 mmHg 53%
    Mehr zeigen